Back to catalog

CZ-3B DEB

LostGTO
NORAD 40838·DEBRIS·🇨🇳 China

Launched Dec 19, 2011 from Xichang Satellite Launch Center

Loading…

TLE

StaleSource: Space-Track

Epoch: May 13, 2026, 08:44 UTC

1 40838U 11077T   26133.36454437  .00001251  00000-0  23447-2 0  9991
2 40838  25.7957 235.9640 7485811 230.5464  35.8242  1.95935609 79565

Track CZ-3B DEB in real time with AllMySat

Download on the App Store